Location: Bovenkerk
(52.2915°N, 4.8336°E)
Time: 12:52:32
(UTC+00:00)

CZ-2C R/B - Pass Details

Date: 09 April 2020
Orbit: 785 x 870 km, 98.3° (Epoch: 25 May)

Event Time Altitude Azimuth Distance (km) Brightness Sun altitude
Rises 19:15:29 0° 21° (NNE) 3,291 5.8 -7.5°
Reaches altitude 10° 19:18:04 10° 31° (NNE) 2,357 5.0 -7.9°
Maximum altitude 19:22:41 32° 94° (E) 1,339 3.3 -8.5°
Drops below altitude 10° 19:27:18 10° 157° (SSE) 2,358 4.6 -9.1°
Sets 19:29:52 0° 167° (SSE) 3,292 5.4 -9.5°
